EW3230 Weather Reports


time (UTC)temp
F
wind
direction
speed
knots
gust
knots
rain 1hr
in
rain 24hr
in
rain mn
in
humidity
%
barometer
mb
20260906063338 61 200 0.0 0.0 0.00 0.00 0.00 65 1012.6
20260906062835 61 200 0.0 0.0 0.00 0.00 0.00 65 1012.6
20260906061333 61 200 0.0 0.0 0.00 0.00 0.00 65 1012.6
20260906060332 61 200 0.0 0.0 0.00 0.00 0.00 66 1012.6
20260906055333 61 232 0.0 0.9 0.00 0.00 0.00 66 1012.8
20260906054334 61 313 0.0 0.0 0.00 0.00 0.00 67 1012.9
20260906053337 62 314 0.0 0.0 0.00 0.00 0.00 67 1012.9
20260906052333 62 314 0.0 0.0 0.00 0.00 0.00 68 1013.0
20260906051334 62 314 0.0 0.0 0.00 0.00 0.00 68 1012.9
20260906050833 61 82 0.0 0.0 0.00 0.00 0.00 67 1013.0
20260906045327 61 80 0.0 0.0 0.00 0.00 0.00 66 1012.9
20260906044326 61 81 0.0 0.0 0.00 0.00 0.00 66 1012.8
20260906043327 61 80 0.0 0.0 0.00 0.00 0.00 66 1012.7
20260906042829 61 80 0.0 0.0 0.00 0.00 0.00 67 1012.7
20260906041828 61 80 0.0 0.0 0.00 0.00 0.00 67 1012.7
20260906040328 61 80 0.0 0.0 0.00 0.00 0.00 68 1012.6
20260906035827 61 80 0.0 0.0 0.00 0.00 0.00 68 1012.6
20260906034324 61 80 0.0 0.0 0.00 0.00 0.00 69 1012.6
20260906033323 61 81 0.0 0.0 0.00 0.00 0.00 70 1012.5
20260906032318 62 90 0.0 0.0 0.00 0.00 0.00 70 1012.5
20260906031318 62 90 0.0 0.0 0.00 0.00 0.00 70 1012.5
20260906030331 62 98 0.0 0.0 0.00 0.00 0.00 70 1012.5
20260906025321 62 99 0.0 0.0 0.00 0.00 0.00 70 1012.6
20260906024319 63 99 0.0 0.0 0.00 0.00 0.00 70 1012.6
20260906023318 63 99 0.0 0.0 0.00 0.00 0.00 71 1012.6
20260906022319 63 98 0.0 0.0 0.00 0.00 0.00 71 1012.6
20260906021318 63 98 0.0 0.0 0.00 0.00 0.00 72 1012.5
20260906020319 63 98 0.0 0.0 0.00 0.00 0.00 72 1012.5
20260906015316 63 49 0.0 0.0 0.00 0.00 0.00 72 1012.6
20260906014312 63 46 0.0 0.0 0.00 0.00 0.00 72 1012.7
20260906013314 63 46 0.0 0.0 0.00 0.00 0.00 72 1012.5
20260906012312 63 41 0.0 0.0 0.00 0.00 0.00 71 1012.3
20260906011313 63 41 0.0 0.0 0.00 0.00 0.00 71 1012.4
20260906010313 63 83 0.0 0.0 0.00 0.00 0.00 71 1012.3
20260906005312 62 84 0.0 0.0 0.00 0.00 0.00 72 1012.4
20260906004311 62 84 0.0 0.0 0.00 0.00 0.00 71 1012.3
20260906003810 62 83 0.0 0.0 0.00 0.00 0.00 70 1012.1
20260906002306 62 84 0.0 0.0 0.00 0.00 0.00 70 1012.3
20260906001304 62 84 0.0 0.0 0.00 0.00 0.00 71 1012.1
20260906000305 62 84 0.0 0.0 0.00 0.00 0.00 71 1012.1
20260905235306 62 83 0.0 0.0 0.00 0.00 0.00 72 1012.0
20260905234304 62 84 0.0 0.0 0.00 0.00 0.00 73 1011.9
20260905233810 62 83 0.0 0.0 0.00 0.00 0.00 73 1011.9
20260905232306 63 84 0.0 0.0 0.00 0.00 0.00 74 1011.9
20260905231307 63 84 0.0 0.0 0.00 0.00 0.00 75 1011.8
20260905230305 64 84 0.0 0.0 0.00 0.00 0.00 75 1011.9
20260905225259 64 82 0.0 0.9 0.00 0.00 0.00 76 1011.9
20260905224259 65 81 0.0 1.7 0.00 0.00 0.00 76 1011.9
20260905223800 65 97 0.0 1.7 0.00 0.00 0.00 76 1012.0
20260905223413 65 61 0.0 2.6 0.00 0.00 0.00 76 1012.0
20260905221300 65 97 0.0 1.7 0.00 0.00 0.00 76 1011.9
20260905220300 65 80 0.9 3.5 0.00 0.00 0.00 76 1011.7
20260905215259 65 176 0.9 3.5 0.00 0.00 0.00 76 1011.4
20260905214258 65 142 0.9 5.2 0.00 0.00 0.00 76 1011.3
20260905213259 66 95 1.7 7.0 0.00 0.00 0.00 76 1011.3
20260905212255 67 351 1.7 7.0 0.00 0.00 0.00 75 1011.0
20260905211254 67 46 3.5 9.6 0.00 0.00 0.00 75 1011.1
20260905210254 67 68 3.5 13.0 0.00 0.00 0.00 75 1011.0
20260905205252 67 80 2.6 12.2 0.00 0.00 0.00 75 1010.8
20260905204253 68 285 2.6 10.4 0.00 0.00 0.00 75 1010.8
20260905203253 68 117 2.6 9.6 0.00 0.00 0.00 75 1010.5
20260905202753 69 73 2.6 7.8 0.00 0.00 0.00 74 1010.5
20260905202408 69 81 1.7 7.0 0.00 0.00 0.00 74 1010.4
20260905200251 69 226 1.7 9.6 0.00 0.00 0.00 75 1010.4
20260905195250 69 4 0.9 6.1 0.00 0.00 0.00 75 1010.4
20260905194249 69 93 2.6 12.2 0.00 0.00 0.00 75 1010.3
20260905193251 69 74 1.7 6.1 0.00 0.00 0.00 75 1010.4
20260905192249 69 68 2.6 9.6 0.00 0.00 0.00 75 1010.5
20260905191249 70 265 2.6 9.6 0.00 0.00 0.00 75 1010.5
20260905190251 70 37 1.7 8.7 0.00 0.00 0.00 75 1010.5
20260905185248 70 179 2.6 9.6 0.00 0.00 0.00 75 1010.5
20260905184749 71 305 2.6 10.4 0.00 0.00 0.00 75 1010.4
20260905183247 71 105 1.7 5.2 0.00 0.00 0.00 75 1010.3
20260905182250 70 334 1.7 7.0 0.00 0.00 0.00 75 1010.5
20260905181248 70 95 1.7 7.0 0.00 0.00 0.00 75 1010.6
20260905180247 70 103 1.7 7.0 0.00 0.00 0.00 75 1010.6
20260905175746 70 269 1.7 6.1 0.00 0.00 0.00 75 1010.5
20260905174247 71 57 1.7 9.6 0.00 0.00 0.00 75 1010.2
20260905173244 70 43 1.7 8.7 0.00 0.00 0.00 75 1010.0
20260905172244 69 61 1.7 6.1 0.00 0.00 0.00 75 1010.0
20260905171245 69 43 1.7 7.0 0.00 0.00 0.00 75 1010.1
20260905170245 69 114 1.7 7.0 0.00 0.00 0.00 75 1010.1
20260905165241 69 72 1.7 9.6 0.00 0.00 0.00 75 1010.1
20260905164239 70 225 0.0 6.1 0.00 0.00 0.00 75 1010.1
20260905163241 70 155 1.7 7.0 0.00 0.00 0.00 75 1010.0
20260905162237 70 234 2.6 12.2 0.00 0.00 0.00 75 1009.9
20260905161237 70 78 2.6 10.4 0.00 0.00 0.00 75 1009.8
20260905160238 71 134 2.6 10.4 0.00 0.00 0.00 74 1009.8
20260905155236 72 65 2.6 13.0 0.00 0.00 0.00 74 1009.7
20260905154237 71 96 2.6 10.4 0.00 0.00 0.00 74 1009.6
20260905153239 72 69 1.7 10.4 0.00 0.00 0.00 73 1009.5
20260905152237 72 67 1.7 11.3 0.00 0.00 0.00 72 1009.4
20260905151238 72 59 1.7 7.0 0.00 0.00 0.00 72 1009.5
20260905150237 72 82 1.7 7.0 0.00 0.00 0.00 73 1009.3
20260905145237 72 86 1.7 7.8 0.00 0.00 0.00 73 1009.4
20260905144237 72 111 1.7 9.6 0.00 0.00 0.00 72 1009.6
20260905143238 72 84 2.6 11.3 0.00 0.00 0.00 72 1009.4
20260905142737 72 76 2.6 6.1 0.00 0.00 0.00 72 1009.4
20260905141236 72 77 1.7 7.8 0.00 0.00 0.00 72 1009.4
20260905140236 72 307 1.7 7.0 0.00 0.00 0.00 73 1009.4
20260905135236 73 288 0.9 5.2 0.00 0.00 0.00 74 1009.5
20260905134238 73 16 0.9 5.2 0.00 0.00 0.00 74 1009.5
20260905133236 71 87 0.9 4.3 0.00 0.00 0.00 75 1009.4
20260905132238 71 100 0.9 5.2 0.00 0.00 0.00 75 1009.3
20260905131240 70 102 0.9 4.3 0.00 0.00 0.00 75 1009.2
20260905130236 69 91 0.9 5.2 0.00 0.00 0.00 74 1009.2
20260905125238 69 96 0.9 3.5 0.00 0.00 0.00 74 1009.2
20260905124236 68 87 0.9 5.2 0.00 0.00 0.00 74 1009.0
20260905123236 67 142 0.0 4.3 0.00 0.00 0.00 73 1008.9
20260905122236 66 97 0.0 2.6 0.00 0.00 0.00 73 1008.8
20260905121237 66 264 0.0 3.5 0.00 0.00 0.00 72 1008.8
20260905120238 65 296 0.0 2.6 0.00 0.00 0.00 71 1008.8
20260905115737 65 248 0.0 1.7 0.00 0.00 0.00 71 1008.9
20260905114238 64 264 0.0 0.9 0.00 0.00 0.00 69 1008.9
20260905113236 63 264 0.0 0.0 0.00 0.00 0.00 69 1008.8
20260905112238 63 264 0.0 0.9 0.00 0.00 0.00 68 1008.8
20260905111238 62 264 0.0 0.0 0.00 0.00 0.00 67 1008.7
20260905110236 62 264 0.0 0.0 0.00 0.00 0.00 68 1008.7
20260905105236 62 266 0.0 0.0 0.00 0.00 0.00 68 1008.7
20260905104237 62 264 0.0 0.9 0.00 0.00 0.00 68 1008.5
20260905103236 62 266 0.0 0.9 0.00 0.00 0.00 68 1008.4
20260905102236 62 266 0.0 0.9 0.00 0.00 0.00 69 1008.3
20260905101237 62 266 0.0 0.9 0.00 0.00 0.00 69 1008.2
20260905100741 62 298 0.0 0.0 0.00 0.00 0.00 69 1008.1
20260905095242 62 238 0.0 0.9 0.00 0.00 0.00 68 1008.1
20260905095236 62 298 0.0 1.7 0.00 0.00 0.00 68 1008.3
20260905093236 62 238 0.0 0.0 0.00 0.00 0.00 68 1008.1
20260905092237 62 238 0.0 0.0 0.00 0.00 0.00 67 1008.0
20260905091236 61 238 0.0 0.0 0.00 0.00 0.00 67 1008.0
20260905090737 61 238 0.0 0.9 0.00 0.00 0.00 66 1008.1
20260905085236 61 238 0.0 0.0 0.00 0.00 0.00 66 1008.1
20260905084237 61 238 0.0 0.0 0.00 0.00 0.00 66 1008.2
20260905083737 61 238 0.0 0.0 0.00 0.00 0.00 67 1008.3
20260905082237 62 238 0.0 0.0 0.00 0.00 0.00 67 1008.2
20260905081238 62 238 0.0 0.0 0.00 0.00 0.00 67 1008.2
20260905080239 62 238 0.0 0.0 0.00 0.00 0.00 68 1008.1
20260905075242 62 238 0.0 0.0 0.00 0.00 0.00 68 1008.1
20260905075236 62 238 0.0 0.0 0.00 0.00 0.00 68 1008.1
20260905073238 63 238 0.0 0.0 0.00 0.00 0.00 69 1008.2
20260905072237 63 238 0.0 0.0 0.00 0.00 0.00 70 1008.2
20260905071236 63 238 0.0 0.0 0.00 0.00 0.00 70 1008.3
20260905070237 63 238 0.0 0.9 0.00 0.00 0.00 70 1008.5